K0CPM-2 Weather Reports


time (UTC)temp
C
wind
direction
speed
KPH
gust
KPH
rain 1hr
cm
rain 24hr
cm
rain mn
cm
humidity
%
barometer
mb
20260504034551 17 121 0.0 3.2 0.00 0.00 0.00 71 1016.5
20260504033045 18 121 0.0 4.8 0.00 0.00 0.00 67 1016.6
20260504031551 18 124 0.0 1.6 0.00 0.00 0.00 68 1016.5
20260504030101 18 125 0.0 3.2 0.00 0.00 0.00 65 1016.5
20260504024544 18 141 1.6 4.8 0.00 0.00 0.00 61 1016.3
20260504023044 19 132 0.0 4.8 0.00 0.00 0.00 58 1016.3
20260504021547 19 123 1.6 4.8 0.00 0.00 0.00 56 1016.2
20260504020041 18 129 0.0 3.2 0.00 0.00 0.00 59 1016.0
20260504014541 18 122 1.6 8.0 0.00 0.00 0.00 64 1015.8
20260504013047 17 149 0.0 0.0 0.00 0.00 0.00 58 1015.6
20260504011541 18 149 0.0 0.0 0.00 0.00 0.00 53 1015.5
20260504010050 19 149 0.0 0.0 0.00 0.00 0.00 50 1015.5
20260504004545 20 149 0.0 0.0 0.00 0.00 0.00 46 1015.4
20260504003039 21 150 0.0 0.0 0.00 0.00 0.00 44 1015.2
20260504001541 22 158 0.0 0.0 0.00 0.00 0.00 42 1015.2
20260504000038 22 120 0.0 3.2 0.00 0.00 0.00 41 1015.1
20260503234540 23 130 0.0 3.2 0.00 0.00 0.00 40 1015.2
20260503233035 24 149 0.0 3.2 0.00 0.00 0.00 40 1015.3
20260503231534 25 146 0.0 3.2 0.00 0.00 0.00 36 1015.5
20260503230039 26 145 0.0 4.8 0.00 0.00 0.00 36 1015.5
20260503224532 26 121 0.0 4.8 0.00 0.00 0.00 34 1015.6
20260503223031 26 179 0.0 3.2 0.00 0.00 0.00 34 1015.6
20260503221532 26 122 1.6 6.4 0.00 0.00 0.00 34 1015.8
20260503220034 26 181 0.0 3.2 0.00 0.00 0.00 35 1015.8
20260503214536 26 137 1.6 6.4 0.00 0.00 0.00 35 1016.0
20260503213032 26 188 0.0 6.4 0.00 0.00 0.00 35 1016.3
20260503211523 26 110 1.6 6.4 0.00 0.00 0.00 33 1016.5
20260503210021 26 158 0.0 3.2 0.00 0.00 0.00 33 1016.7
20260503204526 26 240 1.6 6.4 0.00 0.00 0.00 35 1016.9
20260503203020 26 127 1.6 4.8 0.00 0.00 0.00 32 1017.0
20260503201518 26 149 1.6 6.4 0.00 0.00 0.00 33 1017.3
20260503200017 26 134 1.6 6.4 0.00 0.00 0.00 33 1017.5
20260503194516 25 173 0.0 9.7 0.00 0.00 0.00 36 1017.6
20260503193016 26 114 1.6 8.0 0.00 0.00 0.00 35 1017.9
20260503191515 26 177 1.6 9.7 0.00 0.00 0.00 34 1018.2
20260503190017 26 186 1.6 8.0 0.00 0.00 0.00 33 1018.4
20260503184514 26 173 1.6 6.4 0.00 0.00 0.00 35 1018.6
20260503183012 26 127 0.0 8.0 0.00 0.00 0.00 34 1018.6
20260503181523 25 177 0.0 4.8 0.00 0.00 0.00 34 1018.6
20260503180015 25 149 1.6 6.4 0.00 0.00 0.00 35 1018.9
20260503174506 25 183 1.6 6.4 0.00 0.00 0.00 34 1019.2
20260503173006 25 143 0.0 4.8 0.00 0.00 0.00 34 1019.6
20260503171505 25 228 1.6 9.7 0.00 0.00 0.00 34 1019.8
20260503081548 14 155 0.0 0.0 0.00 0.03 0.00 70 1017.3
20260503071537 16 155 0.0 0.0 0.00 0.58 0.00 60 1016.8
20260503054533 18 127 1.6 6.4 0.00 1.60 0.00 54 1016.6
20260503053022 18 160 0.0 4.8 0.00 1.60 0.00 53 1016.4
20260503051523 18 167 0.0 8.0 0.00 1.60 0.00 54 1016.4
20260503050017 18 197 0.0 8.0 0.00 1.60 0.00 53 1016.6
20260503044516 18 183 0.0 6.4 0.00 1.70 1.60 54 1016.4
20260503043015 18 218 0.0 11.3 0.00 1.70 1.60 52 1016.3
20260503041513 19 149 0.0 9.7 0.00 1.70 1.60 51 1016.1
20260503040024 19 170 1.6 12.9 0.00 1.70 1.60 51 1016.1